When you browse on this site, cookies collect data to enhance your experience and personalize the content and advertising you see.
Visit our Privacy Policy to learn more. By continuing to use the site, you agree to this use of cookies and data.
  • In Hungary
  • List of Countries
  • For 7 days
  • Water Temperature
  • Satellite Maps
  • Weather Map
  • News
  • Weather Widgets
  • user-avatar
    Login

    Hourly Weather Santiago

    Today, 19 June, Wednesday

    Time Temperature Precipitation Wind Pressure Humidity
    00:00 +28°C° 0 mm 1 mps 747 mmHg 88%
    01:00 +26°C° 0 mm 0 mps 747 mmHg 88%
    02:00 +25°C° 0 mm 0 mps 747 mmHg 88%
    03:00 +25°C° 0 mm 0 mps 747 mmHg 89%
    04:00 +25°C° 0 mm 0 mps 746 mmHg 89%
    05:00 +25°C° 0 mm 0 mps 746 mmHg 88%
    06:00 +26°C° 0 mm 0 mps 747 mmHg 87%
    07:00 +26°C° 0 mm 0 mps 747 mmHg 87%
    08:00 +27°C° 0 mm 0 mps 747 mmHg 82%
    09:00 +30°C° 0 mm 1 mps 748 mmHg 77%
    10:00 +31°C° 0 mm 1 mps 748 mmHg 73%
    11:00 +32°C° 1.1 mm 1 mps 748 mmHg 71%
    12:00 +33°C° 1.1 mm 1 mps 748 mmHg 69%
    13:00 +34°C° 1.1 mm 1 mps 747 mmHg 67%
    14:00 +32°C° 4.4 mm 1 mps 747 mmHg 74%
    15:00 +31°C° 4.4 mm 1 mps 746 mmHg 81%
    16:00 +29°C° 4.4 mm 1 mps 746 mmHg 87%
    17:00 +29°C° 0.7 mm 1 mps 746 mmHg 89%
    18:00 +28°C° 0.7 mm 1 mps 746 mmHg 90%
    19:00 +28°C° 0.7 mm 1 mps 746 mmHg 92%
    20:00 +28°C° 0 mm 1 mps 747 mmHg 91%
    21:00 +28°C° 0 mm 1 mps 747 mmHg 91%
    22:00 +27°C° 0 mm 1 mps 747 mmHg 91%
    23:00 +27°C° 0 mm 1 mps 747 mmHg 91%

    Tomorrow, 20 June, Thursday

    Time Temperature Precipitation Wind Pressure Humidity
    00:00 +27°C° 0 mm 1 mps 747 mmHg 91%
    01:00 +27°C° 0 mm 1 mps 747 mmHg 91%
    02:00 +27°C° 0 mm 1 mps 747 mmHg 91%
    03:00 +27°C° 0 mm 1 mps 747 mmHg 92%
    04:00 +26°C° 0 mm 1 mps 746 mmHg 92%
    05:00 +27°C° 0 mm 1 mps 747 mmHg 91%
    06:00 +27°C° 0 mm 1 mps 747 mmHg 91%
    07:00 +25°C° 0 mm 0 mps 747 mmHg 90%
    08:00 +26°C° 0.1 mm 0 mps 747 mmHg 86%
    09:00 +29°C° 0.1 mm 1 mps 748 mmHg 83%
    10:00 +30°C° 0.1 mm 1 mps 748 mmHg 79%
    11:00 +30°C° 0.4 mm 1 mps 748 mmHg 78%
    12:00 +31°C° 0.4 mm 2 mps 747 mmHg 76%
    13:00 +32°C° 0.4 mm 2 mps 747 mmHg 74%
    14:00 +31°C° 1 mm 3 mps 747 mmHg 75%
    15:00 +31°C° 1 mm 3 mps 746 mmHg 77%
    16:00 +31°C° 1 mm 3 mps 746 mmHg 79%
    17:00 +30°C° 1 mm 3 mps 746 mmHg 83%
    18:00 +29°C° 1 mm 2 mps 746 mmHg 86%
    19:00 +28°C° 1 mm 1 mps 747 mmHg 90%
    20:00 +28°C° 0.1 mm 1 mps 747 mmHg 91%
    21:00 +28°C° 0.1 mm 1 mps 748 mmHg 91%
    22:00 +27°C° 0.1 mm 1 mps 748 mmHg 92%
    23:00 +27°C° 0.1 mm 1 mps 748 mmHg 92%

    Day after tomorrow, 21 June, Friday

    Time Temperature Precipitation Wind Pressure Humidity
    00:00 +27°C° 0.1 mm 1 mps 748 mmHg 93%
    01:00 +27°C° 0.1 mm 1 mps 747 mmHg 93%
    02:00 +27°C° 0.2 mm 1 mps 747 mmHg 93%
    03:00 +27°C° 0.2 mm 1 mps 747 mmHg 94%
    04:00 +25°C° 0.2 mm 0 mps 746 mmHg 94%
    05:00 +25°C° 0.2 mm 0 mps 747 mmHg 93%
    06:00 +25°C° 0.2 mm 0 mps 747 mmHg 92%
    07:00 +27°C° 0.2 mm 1 mps 747 mmHg 91%
    08:00 +28°C° 0.6 mm 1 mps 748 mmHg 87%
    09:00 +29°C° 0.6 mm 1 mps 748 mmHg 83%
    10:00 +30°C° 0.6 mm 1 mps 749 mmHg 79%
    11:00 +31°C° 0.3 mm 1 mps 748 mmHg 76%
    12:00 +32°C° 0.3 mm 1 mps 748 mmHg 73%
    13:00 +33°C° 0.3 mm 1 mps 747 mmHg 70%
    14:00 +32°C° 2.3 mm 1 mps 747 mmHg 72%
    15:00 +32°C° 2.3 mm 1 mps 746 mmHg 74%
    16:00 +31°C° 2.3 mm 1 mps 746 mmHg 76%
    17:00 +30°C° 1.6 mm 1 mps 746 mmHg 80%
    18:00 +29°C° 1.6 mm 1 mps 747 mmHg 85%
    19:00 +28°C° 1.6 mm 1 mps 747 mmHg 89%
    20:00 +26°C° 0.1 mm 0 mps 748 mmHg 89%
    21:00 +26°C° 0.1 mm 0 mps 748 mmHg 89%
    22:00 +27°C° 0.1 mm 1 mps 749 mmHg 89%
    23:00 +27°C° 0 mm 1 mps 749 mmHg 90%

    22 June, Saturday

    Time Temperature Precipitation Wind Pressure Humidity
    00:00 +27°C° 0 mm 1 mps 748 mmHg 90%
    01:00 +25°C° 0 mm 0 mps 748 mmHg 91%
    02:00 +27°C° 0 mm 1 mps 748 mmHg 91%
    03:00 +27°C° 0 mm 1 mps 747 mmHg 91%
    04:00 +26°C° 0 mm 1 mps 747 mmHg 92%
    05:00 +27°C° 0 mm 1 mps 747 mmHg 91%
    06:00 +25°C° 0 mm 0 mps 748 mmHg 90%
    07:00 +25°C° 0 mm 0 mps 748 mmHg 90%
    08:00 +26°C° 0 mm 0 mps 748 mmHg 84%
    09:00 +30°C° 0 mm 1 mps 749 mmHg 78%
    10:00 +31°C° 0 mm 1 mps 749 mmHg 72%
    11:00 +32°C° 0.2 mm 1 mps 748 mmHg 69%
    12:00 +33°C° 0.2 mm 1 mps 748 mmHg 66%
    13:00 +32°C° 0.2 mm 0 mps 748 mmHg 63%
    14:00 +33°C° 2.8 mm 1 mps 747 mmHg 68%
    15:00 +32°C° 2.8 mm 1 mps 747 mmHg 73%
    16:00 +31°C° 2.8 mm 1 mps 746 mmHg 77%
    17:00 +30°C° 1.6 mm 1 mps 746 mmHg 81%
    18:00 +29°C° 1.6 mm 1 mps 747 mmHg 84%
    19:00 +28°C° 1.6 mm 1 mps 747 mmHg 87%
    20:00 +28°C° 0.1 mm 1 mps 747 mmHg 88%
    21:00 +28°C° 0.1 mm 1 mps 748 mmHg 89%
    22:00 +26°C° 0.1 mm 0 mps 748 mmHg 89%
    23:00 +27°C° 0.1 mm 1 mps 748 mmHg 90%

    23 June, Sunday

    Time Temperature Precipitation Wind Pressure Humidity
    00:00 +27°C° 0.1 mm 1 mps 748 mmHg 90%
    01:00 +27°C° 0.1 mm 1 mps 747 mmHg 90%
    02:00 +27°C° 0 mm 1 mps 747 mmHg 90%
    03:00 +27°C° 0 mm 1 mps 747 mmHg 91%
    04:00 +27°C° 0 mm 1 mps 746 mmHg 91%
    05:00 +27°C° 0.2 mm 1 mps 747 mmHg 90%
    06:00 +27°C° 0.2 mm 1 mps 747 mmHg 90%
    07:00 +27°C° 0.2 mm 1 mps 747 mmHg 89%
    08:00 +28°C° 0.1 mm 1 mps 748 mmHg 84%
    09:00 +30°C° 0.1 mm 1 mps 748 mmHg 78%
    10:00 +31°C° 0.1 mm 1 mps 748 mmHg 73%
    11:00 +31°C° 2 mm 1 mps 748 mmHg 74%
    12:00 +31°C° 2 mm 1 mps 748 mmHg 75%
    13:00 +31°C° 2 mm 2 mps 748 mmHg 77%
    14:00 +29°C° 1.7 mm 2 mps 747 mmHg 82%
    15:00 +28°C° 1.7 mm 2 mps 747 mmHg 88%
    16:00 +27°C° 1.7 mm 2 mps 746 mmHg 94%
    17:00 +27°C° 0.2 mm 1 mps 747 mmHg 94%
    18:00 +27°C° 0.2 mm 1 mps 747 mmHg 94%
    19:00 +26°C° 0.2 mm 1 mps 747 mmHg 95%
    20:00 +26°C° 0 mm 1 mps 747 mmHg 95%
    21:00 +26°C° 0 mm 1 mps 748 mmHg 94%
    22:00 +26°C° 0 mm 1 mps 748 mmHg 94%
    23:00 +26°C° 0 mm 1 mps 748 mmHg 94%

    24 June, Monday

    Time Temperature Precipitation Wind Pressure Humidity
    00:00 +26°C° 0 mm 1 mps 748 mmHg 93%
    01:00 +24°C° 0 mm 0 mps 747 mmHg 93%
    02:00 +26°C° 0 mm 1 mps 747 mmHg 93%
    03:00 +26°C° 0 mm 1 mps 747 mmHg 93%
    04:00 +26°C° 0 mm 1 mps 746 mmHg 92%
    05:00 +26°C° 0 mm 1 mps 747 mmHg 92%
    06:00 +26°C° 0 mm 1 mps 747 mmHg 91%
    07:00 +24°C° 0 mm 0 mps 747 mmHg 91%
    08:00 +25°C° 0 mm 0 mps 747 mmHg 86%
    09:00 +27°C° 0 mm 0 mps 748 mmHg 81%
    10:00 +28°C° 0 mm 0 mps 748 mmHg 75%
    11:00 +30°C° 1.7 mm 1 mps 748 mmHg 75%
    12:00 +31°C° 1.7 mm 1 mps 748 mmHg 75%
    13:00 +31°C° 1.7 mm 2 mps 747 mmHg 74%
    14:00 +30°C° 3.1 mm 1 mps 747 mmHg 77%
    15:00 +30°C° 3.1 mm 1 mps 746 mmHg 81%
    16:00 +29°C° 3.1 mm 1 mps 746 mmHg 84%
    17:00 +28°C° 1.1 mm 1 mps 746 mmHg 85%
    18:00 +28°C° 1.1 mm 1 mps 746 mmHg 87%
    19:00 +27°C° 1.1 mm 1 mps 747 mmHg 89%
    20:00 +27°C° 0.3 mm 1 mps 747 mmHg 89%
    21:00 +25°C° 0.3 mm 0 mps 748 mmHg 89%
    22:00 +25°C° 0.3 mm 0 mps 748 mmHg 89%
    23:00 +24°C° 0 mm 0 mps 748 mmHg 89%
    Show more